Theta_e
325 326 323 321 328 334 343 344 342 344 345 341 339 332 332 327 324 318 325 333 336 336 334 333 321 330 329 330 330 330 330 330 328 334 329 328 327 327 328 328 327 328 328
324 326 326 326 325 324 329 336 344 343 344 344 341 340 340 340 335 333 329 332 336 337 337 335 331 329 319 327 329 330 329 331 328 331 331 327 327 328 327 328 327 328 326
320 322 325 326 326 325 324 325 330 335 341 342 342 341 340 340 341 340 337 336 337 337 336 336 333 329 317 327 323 329 329 331 329 327 331 323 325 327 326 328 326 325 325
316 317 319 322 323 326 326 325 325 327 334 340 340 339 339 339 340 341 341 340 339 338 336 337 328 327 321 317 316 320 328 329 326 323 328 322 315 318 321 326 327 326 325
315 315 316 317 318 320 322 324 326 325 325 326 329 332 333 335 335 336 339 339 337 335 335 338 335 330 328 319 318 319 325 317 322 322 323 327 322 314 313 320 326 326 326
313 313 314 315 315 317 318 319 319 322 325 325 325 326 326 328 331 331 331 329 324 328 329 328 329 328 323 316 315 319 317 314 323 323 323 323 326 326 323 313 321 326 326
310 310 311 312 313 314 314 315 318 318 314 317 321 323 323 325 326 326 329 328 327 328 328 325 327 324 325 319 315 314 312 315 322 325 324 325 325 326 324 313 316 325 326
309 308 308 308 309 311 313 314 315 316 318 316 315 320 322 324 324 323 324 328 328 329 329 327 327 326 324 322 315 313 315 317 318 320 326 326 326 322 324 319 319 321 326
309 308 308 308 308 308 308 310 313 314 315 316 318 316 316 322 323 322 321 325 327 328 329 329 327 324 322 320 318 315 320 323 321 321 321 321 319 319 319 318 313 316 322
308 308 308 308 308 308 308 308 309 311 314 314 314 317 320 316 318 319 321 322 323 325 328 329 329 329 323 319 318 324 325 326 326 322 319 318 319 320 317 315 321 319 319
306 306 307 307 307 306 306 307 308 309 310 313 314 315 317 319 319 317 319 321 320 320 322 326 327 325 323 319 318 325 327 327 327 326 325 324 324 323 318 315 314 321 321
304 304 304 304 305 305 306 306 306 307 309 310 312 314 315 316 317 318 318 319 319 318 317 325 323 322 323 321 320 324 327 327 327 326 324 324 324 324 324 319 314 319 321
300 301 301 301 301 301 302 303 303 306 307 309 310 311 312 313 314 314 316 317 319 319 319 318 322 323 324 323 323 322 323 324 326 325 325 324 323 323 324 322 314 320 321
297 298 298 299 299 299 300 301 303 303 305 307 308 309 310 311 312 313 313 314 317 318 317 317 317 318 322 323 323 322 324 324 325 325 324 324 323 323 324 323 317 317 321
295 295 295 296 296 297 298 299 300 302 303 305 307 307 308 310 310 310 311 313 312 312 311 312 315 316 316 316 317 320 321 322 324 324 324 323 323 322 322 323 320 315 319
294 294 294 295 295 295 296 298 299 300 301 301 303 304 305 307 307 307 308 308 310 309 309 309 311 312 312 312 311 311 314 318 321 322 322 322 322 322 321 322 323 318 315
293 293 294 294 294 295 295 296 297 298 299 300 300 301 302 302 304 305 305 305 306 307 308 308 310 312 311 312 313 313 313 314 316 319 320 320 320 321 321 321 322 320 318
293 293 293 293 293 294 294 295 296 297 298 298 299 299 300 300 300 301 303 303 304 304 305 308 310 310 311 312 312 312 313 313 313 314 316 317 318 319 319 320 320 323 319
292 292 292 292 292 293 293 294 295 296 296 297 298 298 299 299 300 300 300 301 302 304 305 306 307 308 309 310 311 312 312 312 313 313 314 315 315 316 317 317 319 320 321
292 293 292 292 292 292 293 293 293 294 295 296 297 298 298 299 300 300 300 300 300 301 302 304 306 307 309 309 310 311 312 312 313 314 314 315 315 315 316 317 318 319 320
292 292 293 293 293 293 292 292 293 294 294 295 296 296 298 299 299 300 300 300 300 300 301 302 304 306 307 307 308 309 311 312 312 313 313 314 315 315 316 316 318 318 319
292 292 292 293 293 294 294 294 294 294 294 295 295 296 296 297 298 299 299 300 300 301 301 302 303 305 306 305 305 308 309 310 311 311 312 313 314 315 316 316 317 318 318
293 292 293 293 294 294 295 295 296 296 296 296 296 296 296 297 297 297 298 299 300 301 301 301 302 303 304 304 304 305 306 308 310 310 311 312 313 315 316 317 316 317 319
294 293 293 294 294 295 295 295 296 296 297 298 297 297 296 297 297 298 298 299 299 300 301 301 302 303 305 305 304 304 304 305 306 309 310 311 312 313 315 316 317 317 319
295 295 295 295 294 294 294 295 295 296 297 297 298 298 298 298 299 299 299 300 299 299 300 301 302 302 302 302 303 304 304 305 307 308 309 311 312 313 315 316 317 318 319
296 296 296 296 295 294 293 293 293 294 295 297 297 297 298 299 300 300 301 301 301 301 302 301 301 302 302 302 303 305 305 306 307 307 309 311 310 313 314 315 316 318 319
Wind_Speed
14 13 12 11 9 10 11 15 21 22 22 26 26 29 31 31 29 31 29 26 26 23 21 20 19 16 12 10 9 8 6 5 4 2 6 7 4 4 2 3 5 6 7
14 14 13 12 12 10 6 14 14 16 21 24 26 26 26 28 31 32 33 31 29 28 26 24 22 19 18 16 12 11 8 8 5 5 7 8 5 4 3 4 5 6 6
14 13 13 13 12 12 13 12 8 14 17 20 24 26 28 28 29 32 34 32 31 32 33 30 27 25 23 17 15 12 10 9 7 6 7 9 6 4 4 5 6 7 9
16 15 14 13 12 12 12 12 12 11 10 19 20 21 23 25 27 29 30 32 34 35 37 37 34 30 27 24 21 18 13 11 10 7 7 6 6 7 7 6 7 8 9
18 17 16 15 14 13 12 12 12 12 12 11 11 19 26 31 33 30 28 33 33 35 39 40 26 29 28 25 22 22 20 15 12 9 8 7 5 5 7 8 9 9 10
21 21 20 18 17 15 16 15 15 15 16 15 12 11 15 18 29 39 46 43 48 44 42 23 14 17 20 25 24 25 22 20 15 11 9 8 5 5 6 8 10 10 10
23 22 22 22 21 19 18 17 17 18 21 22 22 22 20 17 24 30 36 51 51 47 50 45 41 47 34 31 30 28 25 23 18 14 11 10 6 6 8 9 9 10 12
26 24 23 23 24 24 23 21 20 19 20 21 23 22 22 22 28 33 28 30 44 40 43 46 40 46 45 46 40 35 31 27 23 18 13 10 8 5 7 7 9 12 10
29 28 27 25 25 24 24 25 24 23 23 22 24 26 25 23 27 27 30 28 26 32 34 34 41 46 45 48 46 39 30 23 22 20 18 16 13 10 8 8 11 13 12
33 32 31 29 29 29 28 28 27 26 28 26 25 25 25 28 28 28 28 18 22 26 28 31 37 44 46 54 45 32 27 24 21 21 20 16 14 13 10 9 9 10 12
31 32 32 33 34 33 32 30 29 29 29 29 28 25 24 25 25 32 32 38 32 19 19 27 37 43 46 47 42 32 29 24 21 21 15 12 10 12 13 10 10 11 12
31 32 33 34 33 32 31 30 29 29 29 32 30 27 24 21 20 25 29 30 31 31 25 19 24 26 33 34 37 32 28 26 23 19 18 14 13 12 11 11 9 9 10
37 39 39 38 38 34 31 30 31 27 31 31 31 31 29 25 28 23 21 26 31 28 29 30 17 34 29 28 29 30 32 30 25 22 20 17 14 14 12 12 10 11 15
30 32 34 38 37 36 34 34 29 31 29 30 32 32 31 26 22 26 26 21 25 29 31 30 30 26 28 33 32 36 32 31 27 24 22 19 16 16 14 13 14 12 15
29 28 30 31 34 34 34 36 36 30 32 29 29 31 30 30 27 24 29 29 26 21 18 21 26 29 26 22 23 27 27 29 26 23 22 22 19 20 18 18 15 16 15
31 30 29 29 30 30 32 33 33 36 35 33 38 33 25 28 27 19 20 24 31 28 25 20 19 23 25 25 27 28 29 24 25 23 23 23 23 23 22 22 18 19 19
29 30 31 30 28 28 28 30 32 31 32 32 34 37 42 44 32 33 32 27 28 30 34 31 31 30 28 28 29 27 28 28 28 28 26 27 27 28 27 25 21 18 21
27 28 28 29 29 30 29 27 29 30 30 32 32 34 38 39 39 42 37 34 33 37 35 37 38 36 35 33 31 30 28 28 30 28 29 31 30 30 29 30 28 22 20
26 26 24 25 26 26 27 28 30 31 31 34 34 33 30 29 30 33 35 40 36 35 33 34 35 35 35 33 32 31 29 30 29 30 30 32 30 32 31 32 30 27 23
27 24 21 21 21 22 24 26 28 30 32 34 33 33 29 29 31 32 34 40 43 43 38 35 31 33 33 33 32 31 29 29 30 31 30 30 30 32 33 32 32 29 27
25 23 20 19 19 19 20 22 23 26 28 29 29 31 31 30 33 32 33 37 40 43 42 42 38 33 37 35 34 35 33 33 31 30 31 31 29 30 33 33 32 32 28
22 22 21 19 17 16 16 17 20 22 25 28 30 29 30 34 36 38 36 36 36 38 40 37 44 40 37 36 39 35 33 34 33 31 30 29 29 30 31 33 33 33 31
24 23 21 20 17 16 15 14 16 17 20 24 27 27 27 30 32 34 35 37 36 37 35 35 37 41 40 41 40 40 41 38 34 33 31 31 34 33 33 34 34 33 30
28 26 24 23 21 19 17 15 14 16 18 18 19 23 25 26 27 29 30 33 35 36 37 37 39 34 34 34 36 38 36 34 39 36 34 35 34 36 36 35 35 34 30
30 30 27 27 26 25 23 20 18 16 14 13 15 16 18 20 23 26 27 28 31 33 34 36 38 39 39 36 35 37 38 32 34 35 34 35 37 36 32 37 36 31 36
35 32 30 30 30 29 27 24 21 19 17 16 15 15 17 17 18 20 22 25 28 30 32 36 40 39 38 37 35 33 34 36 38 37 31 32 34 34 33 36 33 34 39
Wind_Direction
356 2 359 350 348 265 257 253 248 240 229 221 222 223 224 225 222 222 215 212 214 212 210 215 218 211 215 224 229 236 240 243 255 232 297 304 319 311 297 290 296 295 306
348 344 353 359 349 328 301 251 241 242 236 229 225 225 223 223 223 223 223 215 213 211 214 214 214 213 217 214 220 225 233 235 235 252 266 283 305 323 282 268 282 282 299
337 338 337 332 336 339 332 320 286 250 239 238 230 226 228 225 225 224 225 223 224 217 215 214 213 214 226 216 220 228 228 225 236 235 240 268 276 281 296 276 286 278 289
329 327 328 326 327 318 316 323 323 295 261 231 226 231 227 229 228 230 228 224 224 229 229 218 219 223 228 225 230 225 215 217 216 217 231 247 263 272 286 285 279 279 283
316 314 314 314 312 311 313 304 302 306 304 289 265 259 243 234 230 226 225 225 232 238 241 224 215 225 230 233 225 219 213 210 216 218 232 230 259 286 288 279 273 275 277
300 300 303 303 306 304 303 299 295 289 285 283 283 284 264 254 252 250 247 249 249 259 246 267 234 223 234 242 232 224 220 209 208 222 243 250 243 256 250 274 268 266 270
292 292 289 289 291 291 293 295 295 290 282 279 279 273 272 273 266 265 256 242 247 246 249 243 252 240 240 246 232 226 215 217 211 221 226 240 240 245 241 282 264 266 271
286 286 287 287 285 284 282 283 285 286 286 281 274 272 269 265 264 267 276 266 252 246 248 245 248 230 238 233 228 213 214 219 225 231 229 233 241 249 250 262 243 253 266
280 279 280 281 281 281 280 278 275 274 273 274 276 273 262 260 263 259 258 258 250 247 251 246 227 228 210 212 218 214 212 216 223 227 234 241 257 268 249 272 269 248 255
277 277 277 278 278 278 277 276 274 269 267 268 267 264 268 260 258 257 244 248 243 236 232 235 233 213 213 211 205 204 205 209 210 221 229 242 252 260 274 274 252 230 240
283 279 274 273 274 275 275 273 270 267 263 260 259 258 261 257 254 249 246 240 243 241 249 234 212 199 211 209 203 200 204 204 210 214 219 223 238 242 250 259 236 230 237
281 280 277 273 271 270 270 268 267 263 258 255 253 254 254 256 257 244 246 241 246 244 237 247 218 208 200 201 195 198 200 203 206 211 222 223 230 240 251 242 245 225 230
283 278 278 273 268 267 266 267 263 256 253 250 249 248 249 252 246 251 254 237 234 229 221 224 228 222 230 225 203 203 211 214 218 220 223 224 229 237 225 233 240 225 225
286 287 285 271 270 267 267 257 259 257 249 247 246 244 243 244 245 240 241 244 224 223 226 225 227 229 230 233 233 226 222 217 220 221 224 225 223 225 223 221 228 234 226
292 286 282 278 278 276 266 260 255 253 250 245 246 246 243 241 243 248 241 237 238 237 232 231 225 230 236 239 222 218 222 217 215 216 217 221 222 226 228 228 230 228 227
295 290 286 281 276 275 270 266 259 255 248 246 241 244 247 239 237 238 238 244 240 236 233 234 240 235 233 240 244 240 227 215 218 214 218 220 228 230 230 225 216 238 228
293 290 286 283 279 272 271 265 265 258 258 252 248 245 242 244 235 237 242 240 237 238 236 233 229 229 228 228 228 230 227 228 224 220 222 226 229 233 233 229 218 224 228
297 291 286 282 275 271 266 264 262 260 257 256 255 251 247 246 243 236 232 239 239 236 232 231 232 233 233 234 235 232 229 228 225 224 224 224 222 227 227 230 227 213 227
309 304 298 289 279 271 268 262 257 257 259 257 257 255 251 244 240 236 234 236 236 237 234 232 229 231 231 230 228 230 226 225 222 221 221 220 219 221 223 225 224 220 213
323 319 313 300 286 277 270 262 260 258 255 253 252 251 248 249 240 232 230 230 233 233 236 229 228 225 225 225 225 223 224 222 218 215 217 218 215 217 220 219 221 215 211
330 328 324 316 306 294 279 269 260 257 255 253 250 248 245 242 243 238 233 232 232 233 234 233 227 226 223 221 219 218 218 218 217 216 215 216 214 212 218 218 216 218 213
342 341 337 329 320 311 303 291 278 264 258 256 257 250 243 239 235 237 241 240 239 236 235 232 226 223 224 225 222 217 220 215 216 219 216 216 213 214 213 216 214 215 214
359 354 350 345 338 328 316 305 299 283 286 275 262 255 249 245 241 237 235 235 235 233 229 234 229 226 226 226 228 226 222 215 218 215 217 220 212 213 212 214 212 211 210
11 8 3 359 355 346 336 325 311 292 293 289 270 259 252 249 247 243 236 233 232 233 235 229 223 222 222 223 222 224 223 224 219 218 216 218 214 214 210 209 211 211 209
17 17 14 10 7 0 349 338 327 312 303 294 283 269 264 256 251 246 244 240 234 228 229 230 231 229 226 224 224 225 226 220 211 209 216 211 211 206 209 204 207 211 207
22 17 13 11 8 3 357 349 338 326 312 295 278 265 262 265 259 255 247 241 239 236 233 228 229 233 232 227 217 215 216 216 213 209 208 211 210 204 209 203 206 211 209